Regional Weather Roundup
Issued by NWS

Home | Current Version | Previous Version | Graphics & Text | Print | Product List | Glossary On
Versions: 1 2 3 4 5 6 7 8 9 10 11 12 13 14 15 16 17 18 19 20 21 22 23 24 25 26 27 28 29 30 31 32 33 34 35 36 37 38 39 40 41 42 43 44 45 46 47 48 49 50
000
ASUS45 KBOU 222007
RWRCO

WEATHER ROUNDUP FOR COLORADO
NATIONAL WEATHER SERVICE DENVER/BOULDER CO
200 PM MDT FRI MAY 22 2015

NOTE: "FAIR" INDICATES FEW OR NO CLOUDS BELOW 12000 FEET WITH NO
SIGNIFICANT WEATHER AND/OR OBSTRUCTIONS TO VISIBILITY.

COZ001>005-013-030-031-222100-
...NORTHWEST COLORADO...

CITY           SKY/WX    TMP DP  RH WIND       PRES   REMARKS
CRAIG          CLOUDY    58  41  53 SW7       29.98F
HAYDEN         CLOUDY    52  39  62 E5        30.00F
MEEKER         LGT RAIN  55  39  54 CALM      29.96F
MOUNT WERNER   NOT AVBL
STEAMBOAT SPGS CLOUDY    49  38  66 CALM      30.02F
WALDEN         CLOUDY    50  34  53 S8        30.04F
$$

COZ006>008-011-222100-
...WEST CENTRAL VALLEYS...

CITY           SKY/WX    TMP DP  RH WIND       PRES   REMARKS
GRAND JUNCTION PTSUNNY   63  36  36 N8        29.89F
MONTROSE       LGT RAIN  63  32  31 CALM      29.93F
EAGLE          MOSUNNY   59  37  44 W12       30.01F
RIFLE          PTSUNNY   60  42  51 N8        29.94F
DELTA          MOSUNNY   66  38  35 MISG      29.92F
NUCLA          PTSUNNY   66  27  22 S15G22    29.98S
$$

COZ017>023-064>068-222100-
...SOUTHWEST COLORADO...

CITY           SKY/WX    TMP DP  RH WIND       PRES   REMARKS
DURANGO        PTSUNNY   59  37  44 E13G21    30.03F
CORTEZ         PTSUNNY   66  33  29 SE10G20   29.95F
PAGOSA SPRINGS CLOUDY    56  32  41 S9        30.09F
TELLURIDE      LGT RAIN  47  29  48 SW12G20   30.12F
WOLF CREEK PAS NOT AVBL
$$

COZ009-010-012-014-032>034-037-058>063-222100-
...CENTRAL COLORADO...

CITY           SKY/WX    TMP DP  RH WIND       PRES   REMARKS
ASPEN          MOSUNNY   55  32  41 SE17      30.03S
BUENA VISTA    MOSUNNY   59  32  36 E15G24    30.02F
COPPER MTN     PTSUNNY   37  21  52 W12       30.19S
BERTHOUD PASS  HAZE      28  19  69 NW16G25   30.20F VSB<1/4 WCI  17
COTTONWOOD PAS CLOUDY    55  32  41 SE12G20   30.10F
GUNNISON       MOSUNNY   57  21  24 SE9       30.03S
KREMMLING      PTSUNNY   55  37  50 SW9       30.04F
LEADVILLE      NOT AVBL
MONARCH PASS   CLOUDY    34  27  75 MISG      30.30F
SALIDA         CLOUDY    57  35  42 NW7       30.09F
SUNLIGHT       MOSUNNY   41  37  87 CALM      30.17S THUNDER
WILKERSON PASS MOSUNNY   41  32  70 SW6       30.19S
$$

COZ069>075-222100-
...SAN LUIS VALLEY/SANGRE DE CRISTO MOUNTAINS...

CITY           SKY/WX    TMP DP  RH WIND       PRES   REMARKS
ALAMOSA        MOSUNNY   61  31  32 S20G28    30.05F
LA VETA PASS   MOSUNNY  N/A N/A N/A MISG      30.16F
SAGUACHE       PTSUNNY   59  27  29 SW14G25   30.05F
$$

COZ035-036-038>040-222100-
...NORTHERN COLORADO FRONT RANGE...

CITY           SKY/WX    TMP DP  RH WIND       PRES   REMARKS
DENVER INTL AP PTSUNNY   55  47  74 VRB5      29.99F
DMNS CITY PARK   N/A     57  46  65 W3G12     29.98F
AURORA         PTSUNNY   56  46  66 NE8       29.99F
FRONT RANGE AP PTSUNNY   57  50  77 NE7       29.99F
ERIE MUNI ARPT CLOUDY    53  46  78 E7        30.00S
BOULDER MUN AP CLOUDY    52  46  82 NE5       30.00S
CENTENNIAL     PTSUNNY   56  44  64 N9        29.99F
BROOMFIELD     CLOUDY    54  46  76 N6        30.01
FORT COLLINS   CLOUDY    48  46  93 E8        30.03S
LONGMONT       CLOUDY    56  49  76 NE6       30.02F
$$

COZ041-046-047-076>085-087-088-222100-
...PIKES PEAK/PALMER DIVIDE AND SOUTHERN FOOTHILLS...

CITY           SKY/WX    TMP DP  RH WIND       PRES   REMARKS
COLO. SPRINGS  PTSUNNY   61  48  62 SE10      29.99F
A. F. ACADEMY  MOSUNNY   59  45  59 S10       29.99F
ELLICOTT       NOT AVBL
FALCON         MOSUNNY   58  44  58 SE8       30.03F
FORT CARSON    LGT RAIN  59  49  70 SE9G20    29.97F
LIMON          MOSUNNY   59  45  59 CALM      29.99F
MONUMENT HILL  NOT AVBL
TRINIDAD       MOSUNNY   67  36  31 S10G18    29.98F
$$

COZ042>045-048>051-090-091-222100-
...NORTHEAST COLORADO...

CITY           SKY/WX    TMP DP  RH WIND       PRES   REMARKS
GREELEY ARPT   CLOUDY    48  48 100 E9        30.02S
AKRON          CLOUDY    50  48  93 E12       30.00F
BURLINGTON     PTSUNNY   55  51  86 SE20G29   29.99F
WRAY           LGT RAIN N/A N/A N/A E18       30.03F
STERLING       LGT RAIN  52  50  93 SE10      30.02S
HOLYOKE        NOT AVBL
FORT MORGAN    DRIZZLE   51  46  83 E8        30.02S
$$

COZ086-089-092>099-222100-
...SOUTHEAST COLORADO...

CITY           SKY/WX    TMP DP  RH WIND       PRES   REMARKS
PUEBLO         SUNNY     66  51  58 SE9       29.93F
LA JUNTA       SUNNY     69  50  50 E5        29.94F
LAMAR          PTSUNNY   73  51  46 S17       29.91F
SPRINGFIELD      N/A     67  51  56 S23G29    29.99F
$$



USA.gov is the U.S. government's official web portal to all federal, state and local government web resources and services.